Voltar ao catálogo

OBJECT A

AtivoSSO
NORAD 100143·UNKNOWN·🇨🇳 China

Lançado Jul 23, 2026 de Jiuquan Satellite Launch Center

Loading…

Próximas Passagens (próximas 24 horas)

TLE

AtualizadoSource: Space-Track

Época: Sep 13, 2026, 22:27 UTC

1 A0143U 26170A   26256.93574909  .00001205  00000-0  83856-4 0  9993
2 A0143  97.5608 262.8922 0017363  98.1587 262.1611 15.07225917  7830

Acompanhe OBJECT A em tempo real com AllMySat

Download on the App Store